Time,TemperatureF,DewpointF,PressureIn,WindDirection,WindDirectionDegrees,WindSpeedMPH,WindSpeedGustMPH,Humidity,HourlyPrecipIn,Conditions,Clouds,dailyrainin,SolarRadiationWatts/m^2,SoftwareType,DateUTC
2013-04-19 00:03:00,64.0,62.0,-100.00,WSW,239,5.0,7.0,93,0.00,,,0.00,0.000000,,2013-04-19 04:03:00,
2013-04-19 00:33:00,65.0,62.0,-100.00,SW,231,4.0,7.0,91,0.00,,,0.00,0.000000,,2013-04-19 04:33:00,
2013-04-19 00:43:00,65.0,62.0,-100.00,SW,231,4.0,7.0,91,0.00,,,0.00,0.000000,,2013-04-19 04:43:00,
2013-04-19 00:52:00,65.0,62.0,-100.00,SW,231,4.0,7.0,91,0.00,,,0.00,0.000000,,2013-04-19 04:52:00,
2013-04-19 01:03:00,65.0,62.0,-100.00,SW,231,4.0,7.0,91,0.00,,,0.00,0.000000,,2013-04-19 05:03:00,
2013-04-19 01:32:00,64.0,62.0,-100.00,SSW,208,3.0,7.0,94,0.00,,,0.00,0.000000,,2013-04-19 05:32:00,
2013-04-19 01:42:00,64.0,62.0,-100.00,SSW,208,3.0,7.0,94,0.00,,,0.00,0.000000,,2013-04-19 05:42:00,
2013-04-19 01:52:00,64.0,62.0,-100.00,SSW,208,3.0,7.0,94,0.00,,,0.00,0.000000,,2013-04-19 05:52:00,
2013-04-19 02:02:00,64.0,62.0,-100.00,SSW,208,3.0,7.0,94,0.00,,,0.00,0.000000,,2013-04-19 06:02:00,
2013-04-19 02:32:00,62.0,61.0,-100.00,SSW,211,3.0,4.0,97,0.00,,,0.00,0.000000,,2013-04-19 06:32:00,
2013-04-19 02:42:00,62.0,61.0,-100.00,SSW,211,3.0,4.0,97,0.00,,,0.00,0.000000,,2013-04-19 06:42:00,
2013-04-19 02:53:00,62.0,61.0,-100.00,SSW,211,3.0,4.0,97,0.00,,,0.00,0.000000,,2013-04-19 06:53:00,
2013-04-19 03:02:00,62.0,61.0,-100.00,SSW,211,3.0,4.0,97,0.00,,,0.00,0.000000,,2013-04-19 07:02:00,
2013-04-19 04:33:00,63.0,62.0,-100.00,West,279,4.0,8.0,98,-99.99,,,0.00,0.000000,,2013-04-19 08:33:00,
2013-04-19 04:42:00,63.0,62.0,-100.00,West,279,4.0,8.0,98,-99.99,,,0.00,0.000000,,2013-04-19 08:42:00,
2013-04-19 04:52:00,63.0,62.0,-100.00,West,279,4.0,8.0,98,-99.99,,,0.00,0.000000,,2013-04-19 08:52:00,
2013-04-19 05:01:00,63.0,62.0,-100.00,West,279,4.0,8.0,98,-99.99,,,0.00,0.000000,,2013-04-19 09:01:00,
2013-04-19 05:33:00,63.0,62.0,-100.00,West,261,5.0,9.0,98,0.00,,,0.00,0.000000,,2013-04-19 09:33:00,
2013-04-19 05:43:00,63.0,62.0,-100.00,West,261,5.0,9.0,98,0.00,,,0.00,0.000000,,2013-04-19 09:43:00,
2013-04-19 05:52:00,63.0,62.0,-100.00,West,261,5.0,9.0,98,0.00,,,0.00,0.000000,,2013-04-19 09:52:00,
2013-04-19 06:02:00,63.0,62.0,-100.00,West,261,5.0,9.0,98,0.00,,,0.00,0.000000,,2013-04-19 10:02:00,
2013-04-19 06:33:00,65.0,64.0,-100.00,West,274,4.0,9.0,98,0.00,,,0.00,0.000000,,2013-04-19 10:33:00,
2013-04-19 06:42:00,65.0,64.0,-100.00,West,274,4.0,9.0,98,0.00,,,0.00,0.000000,,2013-04-19 10:42:00,
2013-04-19 06:52:00,65.0,64.0,-100.00,West,274,4.0,9.0,98,0.00,,,0.00,0.000000,,2013-04-19 10:52:00,
2013-04-19 07:03:00,65.0,64.0,-100.00,West,274,4.0,9.0,98,0.00,,,0.00,0.000000,,2013-04-19 11:03:00,
2013-04-19 07:32:00,66.0,66.0,-100.00,WNW,287,6.0,12.0,99,0.00,,,0.00,1.000000,,2013-04-19 11:32:00,
2013-04-19 07:43:00,66.0,66.0,-100.00,WNW,287,6.0,12.0,99,0.00,,,0.00,1.000000,,2013-04-19 11:43:00,
2013-04-19 07:52:00,66.0,66.0,-100.00,WNW,287,6.0,12.0,99,0.00,,,0.00,1.000000,,2013-04-19 11:52:00,
2013-04-19 08:03:00,66.0,66.0,-100.00,WNW,287,6.0,12.0,99,0.00,,,0.00,1.000000,,2013-04-19 12:03:00,
2013-04-19 08:32:00,70.0,68.0,-100.00,WNW,287,8.0,18.0,93,0.00,,,0.00,32.000000,,2013-04-19 12:32:00,
2013-04-19 08:42:00,70.0,68.0,-100.00,WNW,287,8.0,18.0,93,0.00,,,0.00,32.000000,,2013-04-19 12:42:00,
2013-04-19 08:53:00,70.0,68.0,-100.00,WNW,287,8.0,18.0,93,0.00,,,0.00,32.000000,,2013-04-19 12:53:00,
2013-04-19 09:01:00,70.0,68.0,-100.00,WNW,287,8.0,18.0,93,0.00,,,0.00,32.000000,,2013-04-19 13:01:00,
2013-04-19 09:32:00,73.0,70.0,-100.00,WNW,294,9.0,20.0,89,0.00,,,0.00,97.000000,,2013-04-19 13:32:00,
2013-04-19 09:42:00,73.0,70.0,-100.00,WNW,294,9.0,20.0,89,0.00,,,0.00,97.000000,,2013-04-19 13:42:00,
2013-04-19 09:52:00,73.0,70.0,-100.00,WNW,294,9.0,20.0,89,0.00,,,0.00,97.000000,,2013-04-19 13:52:00,
2013-04-19 10:02:00,73.0,70.0,-100.00,WNW,294,9.0,20.0,89,0.00,,,0.00,97.000000,,2013-04-19 14:02:00,
2013-04-19 10:32:00,77.0,71.0,-100.00,WNW,287,8.0,20.0,81,0.00,,,0.00,305.000000,,2013-04-19 14:32:00,
2013-04-19 10:43:00,77.0,71.0,-100.00,WNW,287,8.0,20.0,81,0.00,,,0.00,305.000000,,2013-04-19 14:43:00,
2013-04-19 10:52:00,77.0,71.0,-100.00,WNW,287,8.0,20.0,81,0.00,,,0.00,305.000000,,2013-04-19 14:52:00,
2013-04-19 11:02:00,77.0,71.0,-100.00,WNW,287,8.0,20.0,81,0.00,,,0.00,305.000000,,2013-04-19 15:02:00,
2013-04-19 11:33:00,83.0,72.0,-100.00,West,281,9.0,20.0,69,0.00,,,0.00,636.000000,,2013-04-19 15:33:00,
2013-04-19 11:43:00,83.0,72.0,-100.00,West,281,9.0,20.0,69,0.00,,,0.00,636.000000,,2013-04-19 15:43:00,
2013-04-19 11:52:00,83.0,72.0,-100.00,West,281,9.0,20.0,69,0.00,,,0.00,636.000000,,2013-04-19 15:52:00,
2013-04-19 12:03:00,83.0,72.0,-100.00,West,281,9.0,20.0,69,0.00,,,0.00,636.000000,,2013-04-19 16:03:00,
2013-04-19 12:33:00,85.0,70.0,-100.00,WNW,289,13.0,25.0,61,0.00,,,0.00,812.000000,,2013-04-19 16:33:00,
2013-04-19 12:43:00,85.0,70.0,-100.00,WNW,289,13.0,25.0,61,0.00,,,0.00,812.000000,,2013-04-19 16:43:00,
2013-04-19 12:53:00,85.0,70.0,-100.00,WNW,289,13.0,25.0,61,0.00,,,0.00,812.000000,,2013-04-19 16:53:00,
2013-04-19 13:02:00,85.0,70.0,-100.00,WNW,289,13.0,25.0,61,0.00,,,0.00,812.000000,,2013-04-19 17:02:00,
2013-04-19 13:33:00,83.0,69.0,-100.00,WNW,283,11.0,23.0,62,0.00,,,0.00,491.000000,,2013-04-19 17:33:00,
2013-04-19 13:43:00,83.0,69.0,-100.00,WNW,283,11.0,23.0,62,0.00,,,0.00,491.000000,,2013-04-19 17:43:00,
2013-04-19 13:52:00,83.0,69.0,-100.00,WNW,283,11.0,23.0,62,0.00,,,0.00,491.000000,,2013-04-19 17:52:00,
2013-04-19 14:02:00,83.0,69.0,-100.00,WNW,283,11.0,23.0,62,0.00,,,0.00,491.000000,,2013-04-19 18:02:00,
2013-04-19 14:33:00,86.0,68.0,-100.00,WNW,291,9.0,26.0,56,0.00,,,0.00,590.000000,,2013-04-19 18:33:00,
2013-04-19 14:43:00,86.0,68.0,-100.00,WNW,291,9.0,26.0,56,0.00,,,0.00,590.000000,,2013-04-19 18:43:00,
2013-04-19 14:52:00,86.0,68.0,-100.00,WNW,291,9.0,26.0,56,0.00,,,0.00,590.000000,,2013-04-19 18:52:00,
2013-04-19 15:02:00,86.0,68.0,-100.00,WNW,291,9.0,26.0,56,0.00,,,0.00,590.000000,,2013-04-19 19:02:00,
2013-04-19 15:32:00,86.0,66.0,-100.00,WNW,300,11.0,28.0,52,0.00,,,0.00,520.000000,,2013-04-19 19:32:00,
2013-04-19 15:42:00,86.0,66.0,-100.00,WNW,300,11.0,28.0,52,0.00,,,0.00,520.000000,,2013-04-19 19:42:00,
2013-04-19 15:52:00,86.0,66.0,-100.00,WNW,300,11.0,28.0,52,0.00,,,0.00,520.000000,,2013-04-19 19:52:00,
2013-04-19 16:02:00,86.0,66.0,-100.00,WNW,300,11.0,28.0,52,0.00,,,0.00,520.000000,,2013-04-19 20:02:00,
2013-04-19 16:32:00,84.0,65.0,-100.00,WNW,299,9.0,22.0,53,0.00,,,0.00,340.000000,,2013-04-19 20:32:00,
2013-04-19 16:42:00,84.0,65.0,-100.00,WNW,299,9.0,22.0,53,0.00,,,0.00,340.000000,,2013-04-19 20:42:00,
2013-04-19 16:52:00,84.0,65.0,-100.00,WNW,299,9.0,22.0,53,0.00,,,0.00,340.000000,,2013-04-19 20:52:00,
2013-04-19 17:01:00,84.0,65.0,-100.00,WNW,299,9.0,22.0,53,0.00,,,0.00,340.000000,,2013-04-19 21:01:00,
2013-04-19 18:33:00,66.0,65.0,-100.00,West,259,4.0,34.0,98,-99.99,,,0.40,16.000000,,2013-04-19 22:33:00,
2013-04-19 18:42:00,66.0,65.0,-100.00,West,259,4.0,34.0,98,-99.99,,,0.40,16.000000,,2013-04-19 22:42:00,
2013-04-19 18:52:00,66.0,65.0,-100.00,West,259,4.0,34.0,98,-99.99,,,0.40,16.000000,,2013-04-19 22:52:00,
2013-04-19 19:03:00,66.0,65.0,-100.00,West,259,4.0,34.0,98,-99.99,,,0.40,16.000000,,2013-04-19 23:03:00,
2013-04-19 19:32:00,67.0,67.0,-100.00,West,273,4.0,9.0,99,0.08,,,0.48,21.000000,,2013-04-19 23:32:00,
2013-04-19 19:42:00,67.0,67.0,-100.00,West,273,4.0,9.0,99,0.08,,,0.48,21.000000,,2013-04-19 23:42:00,
2013-04-19 19:53:00,67.0,67.0,-100.00,West,273,4.0,9.0,99,0.08,,,0.48,21.000000,,2013-04-19 23:53:00,
2013-04-19 20:02:00,67.0,67.0,-100.00,West,273,4.0,9.0,99,0.08,,,0.48,21.000000,,2013-04-20 00:02:00,
2013-04-19 21:32:00,67.0,67.0,-100.00,WNW,297,4.0,10.0,99,-99.99,,,0.55,0.000000,,2013-04-20 01:32:00,
2013-04-19 21:42:00,67.0,67.0,-100.00,WNW,297,4.0,10.0,99,-99.99,,,0.55,0.000000,,2013-04-20 01:42:00,
2013-04-19 21:52:00,67.0,67.0,-100.00,WNW,297,4.0,10.0,99,-99.99,,,0.55,0.000000,,2013-04-20 01:52:00,
2013-04-19 22:02:00,67.0,67.0,-100.00,WNW,297,4.0,10.0,99,-99.99,,,0.55,0.000000,,2013-04-20 02:02:00,
2013-04-19 22:32:00,66.0,66.0,-100.00,NW,320,5.0,11.0,99,0.01,,,0.56,0.000000,,2013-04-20 02:32:00,
2013-04-19 22:42:00,66.0,66.0,-100.00,NW,320,5.0,11.0,99,0.01,,,0.56,0.000000,,2013-04-20 02:42:00,
2013-04-19 22:52:00,66.0,66.0,-100.00,NW,320,5.0,11.0,99,0.01,,,0.56,0.000000,,2013-04-20 02:52:00,
2013-04-19 23:01:00,66.0,66.0,-100.00,NW,320,5.0,11.0,99,0.01,,,0.56,0.000000,,2013-04-20 03:01:00,
2013-04-19 23:33:00,62.0,61.0,-100.00,NNE,23,5.0,17.0,96,0.01,,,0.57,0.000000,,2013-04-20 03:33:00,
2013-04-19 23:43:00,62.0,61.0,-100.00,NNE,23,5.0,17.0,96,0.01,,,0.57,0.000000,,2013-04-20 03:43:00,
2013-04-19 23:53:00,62.0,61.0,-100.00,NNE,23,5.0,17.0,96,0.01,,,0.57,0.000000,,2013-04-20 03:53:00,